www.pogodaiklimat.ru

Погода и климат >> Архив погоды >> Россия >> Ставропольский край >> Дивное


ПОГОДА в Дивном

  • Прогноз погоды в Дивном
  • Монитор погоды в Дивном

АРХИВ ПОГОДЫ в Дивном

Время (UTC), дата Ветер
(напр.,м/с)
 
Видим.   Явления Облачность Т
(С)
Тd
(С)
f
(%)
Тe
(С)
Тes
(С)
Комфортность P
(гПа)
Po
(гПа)
Тmin
(С)
Tmax
(С)
R
(мм)
R24
(мм)
S
(см)
18 12.06 В 2 10 км 6/6 1000 м
[]
+27.7 +4.0 22 +26 +26 жарко 1010.6 1000.7 233
21 12.06 ЮВ 2 10 км ясно +23.2 +2.7 26 +23 +23 комфорт 1010.0 1000.0
00 13.06 В 1 10 км ясно +19.9 +5.0 38 +22 +22 комфорт 1009.8 999.7
03 13.06 СЗ 1 10 км 8/3 1000 м
[Cb calv Ac trans]
+18.7 +9.3 54 +20 +21 1010.4 1000.2 +15.7
06 13.06 С 1 4000 м слаб. ливневой дождь 10/5 600 м
[Cb cap Ac As]
+22.3 +11.9 52 +25 +27 комфорт 1011.0 1000.9
09 13.06 В 2 10 км {ливн. осадки} 10/3 1000 м
[Cb calv Ac As]
+30.6 +1.9 16 +28 +32 жарко 1011.4 1001.6
12 13.06 СВ 2 10 км {ливн. осадки} 8/3 1000 м
[Cb calv Ac trans]
+34.5 +1.7 13 +31 +36 жарко 1010.1 1000.4
15 13.06 СЗ 1 10 км 10/3 1000 м
[Cb calv Ac As]
+31.9 +3.3 16 +29 +30 жарко 1009.5 999.8 +34.5 0.0
18 13.06 З 1 10 км 8/0
[Ac trans Ci sp]
+27.6 +3.9 22 +26 +26 жарко 1011.4 1001.5
21 13.06 СВ 5-11
{11}
10 км 6/0
[Ac trans Ci sp]
+26.8 +10.3 36 +28 +28 жарко 1012.2 1002.3
00 14.06 СВ 4-10
{13}
10 км 8/0
[Ac trans Ci sp]
+22.2 +9.6 45 +24 +24 комфорт 1013.7 1003.6
03 14.06 СВ 5-11
{11}
10 км 6/0
[Ac trans Ci sp]
+20.6 +7.3 42 +22 +22 комфорт 1015.4 1005.2 +20.1
06 14.06 СВ 5-10
{14}
10 км ясно +23.9 +3.5 26 +23 +30 комфорт 1016.8 1006.7
09 14.06 В 4
{12}
10 км 3/0
[Ac trans]
+28.8 +5.1 22 +27 +38 жарко 1016.6 1006.6
12 14.06 В 3
{10}
10 км ясно +31.2 +4.1 18 +29 +39 жарко 1015.2 1005.4
15 14.06 СВ 3
{10}
10 км ясно +29.9 -0.3 14 +27 +29 жарко 1014.9 1005.0 +31.4
18 14.06 СВ 2 10 км ясно +24.1 +0.2 21 +23 +23 комфорт 1015.7 1005.6
21 14.06 В 1 10 км ясно +20.1 -2.1 22 +21 +21 комфорт 1015.2 1005.0
00 15.06 ЮВ 1 10 км ясно +17.8 +11.6 67 +19 +19 1015.0 1004.9
03 15.06 ЮВ 1 10 км ясно +18.2 +11.2 64 +20 +21 1015.5 1005.3 +16.3
06 15.06 ЮВ 3 10 км ясно +26.0 +10.0 37 +27 +36 жарко 1014.9 1004.9
09 15.06 ЮВ 3 10 км 3/0
[Ci fib]
+30.4 +4.7 20 +29 +43 жарко 1013.4 1003.6
12 15.06 ЮВ 2 10 км 4/0
[Ci fib]
+33.0 +4.6 17 +31 +42 жарко 1011.3 1001.7
15 15.06 СВ 2 10 км 8/0
[Ci fib]
+31.4 +4.7 19 +29 +31 жарко 1010.3 1000.6 +33.6
18 15.06 СВ 1 10 км 8/0
[Ci fib]
+24.0 +8.3 37 +25 +25 комфорт 1011.3 1001.3
21 15.06 В 1 10 км 6/0
[Ci fib]
+24.4 +5.0 29 +24 +24 комфорт 1011.0 1001.0
00 16.06 Ю 2 10 км ясно +21.2 +10.4 50 +23 +23 комфорт 1010.1 1000.1
03 16.06 Ю 1 10 км 8/0
[Ac trans Ci sp]
+22.1 +11.1 50 +24 +25 комфорт 1010.4 1000.4 +18.1
06 16.06 СВ 2 10 км 4/0
[Ci fib]
+29.4 +11.0 32 +30 +41 жарко 1010.5 1000.7
09 16.06 В 3 10 км 3/0
[Ci fib]
+33.4 +5.5 18 +31 +46 жарко 1009.1 999.5
12 16.06 СВ 3 10 км 3/0
[Ci fib]
+35.2 +4.5 15 +32 +42 жарко 1007.6 998.0
15 16.06 штиль 0 10 км 6/0
[Ac trans Ci sp]
+34.2 +5.8 17 +32 +34 жарко 1007.1 997.5 +35.4
18 16.06 С 1 10 км ясно +26.2 +8.0 32 +26 +26 жарко 1006.8 996.9
21 16.06 ЮЗ 2 10 км ясно +25.0 +5.4 28 +25 +25 комфорт 1006.2 996.3
00 17.06 СЗ 3 10 км ясно +22.5 +13.8 58 +26 +26 жарко 1008.0 998.0
03 17.06 СВ 1 10 км ясно +20.4 +14.8 70 +24 +26 комфорт 1009.1 999.1 +20.0
06 17.06 ЮВ 2 10 км ясно +26.2 +13.1 44 +28 +40 жарко 1010.0 1000.1
09 17.06 С 3 10 км ясно +31.3 +9.7 26 +31 +47 жарко 1009.4 999.7
12 17.06 С 3 10 км 4/4 1000 м
[Cu med, cong]
+33.1 +9.2 23 +32 +38 жарко 1008.5 998.8
15 17.06 С 3 10 км 3/3 1000 м
[Cu med, cong]
+31.9 +7.9 23 +31 +32 жарко 1008.9 999.1 +33.5
18 17.06 С 2 10 км 3/0
[Ci fib]
+26.7 +9.4 34 +27 +27 жарко 1010.3 1000.3
21 17.06 С 1 10 км ясно +22.7 +11.3 49 +25 +25 комфорт 1011.2 1001.1
00 18.06 СЗ 1 10 км ясно +19.0 +12.1 64 +21 +21 комфорт 1014.5 1001.2
03 18.06 С 1 10 км ясно +22.0 +11.8 52 +24 +26 комфорт 1011.8 1001.7 +17.5
06 18.06 СВ 2 10 км ясно +28.8 +11.0 33 +29 +41 жарко 1011.5 1001.7
09 18.06 СВ 2 10 км 4/4 1000 м
[Cu med, cong]
+32.2 +8.8 24 +31 +43 жарко 1010.6 1000.9
12 18.06 СВ 2 10 км 4/4 1000 м
[Cu med, cong]
+32.9 +7.3 20 +31 +39 жарко 1009.5 999.8
15 18.06 СВ 1 10 км 3/3 1000 м
[Cu med, cong]
+32.8 +7.3 21 +31 +33 жарко 1008.8 999.1 +34.5
18 18.06 З 1 10 км 3/0
[Ac trans]
+25.2 +9.8 38 +26 +26 жарко 1009.8 999.8
21 18.06 С 1 10 км 3/0
[Ac trans]
+23.1 +8.9 40 +24 +24 комфорт 1010.0 999.9
00 19.06 С 2 10 км ясно +22.2 +8.4 41 +23 +23 комфорт 1009.8 999.7
03 19.06 С 2 10 км 3/0
[Ci sp]
+23.0 +9.2 41 +24 +26 комфорт 1010.3 1000.3 +20.3
06 19.06 С 3 10 км ясно +29.9 +7.8 25 +29 +39 жарко 1010.0 1000.1
09 19.06 СВ 2 10 км 3/0
[Ac trans]
+35.0 +5.8 16 +32 +48 жарко 1009.2 999.6
12 19.06 С 3 10 км 3/0
[Ac trans]
+35.6 +5.1 15 +33 +41 жарко 1008.1 998.5
15 19.06 СЗ 3 10 км ясно +34.1 +4.1 15 +31 +33 жарко 1007.9 998.2 +36.4

 

Местоположение метеостанции Дивное (Ставропольский край, Россия): широта 45.92 долгота 43.35 высота над уровнем моря 86 м.

В архиве по умолчанию представлена погода в Дивном за последнюю неделю. Архивные данные за месяц целиком и за предыдущие месяцы, начиная с января 2011 года, Вы можете получить, выбрав интересующий диапазон дат из раскрывающегося списка и нажав кнопку "Ввод!".


*Определитесь, кто Вы:
робот инопланетянин человек

Внимание! Время в таблицах - всемирное. Для получения местного времени необходимо прибавить поправку, которая равна 3 ч.

Смотрите также архив погоды в соседних городах и на ближайших метеорологических станциях:

Погода в Светлограде (Ставропольский край, Россия) (74 км)
Погода в Ремонтном (Ростовская область, Россия) (76 км)
Погода в Арзгире (Ставропольский край, Россия) (88 км)
Погода в Элисте (Калмыкия, Россия) (91 км)
Погода в Благодарном (Ставропольский край, Россия) (92 км)
Погода в Ики-Буруле (Калмыкия, Россия) (100 км)
Погода в Городовиковске (Калмыкия, Россия) (108 км)
Погода в Ставрополе (Ставропольский край, Россия) (133 км)
Погода в Александровском (Ставропольский край, Россия) (136 км)
Погода в Буденновске (Ставропольский край, Россия) (141 км)

Пояснения к столбцам:

Ветер - указаны скорость ветра в м/с - средняя за 10 мин, порывы в срок и между сроками (в фигурных скобках) и направление, откуда дует ветер: С - северный, СВ - северо-восточный, В - восточный, ЮВ - юго-восточный, Ю - южный, ЮЗ - юго-западный, З - западный, СЗ - северо-западный.
Видимость - горизонтальная дальность видимости в метрах или километрах. При видимости от 1 до 10 км при отсутствии осадков обычно наблюдается дымка, при ухудшении видимости до 1 км и менее - туман. В сухую погоду видимость может ухудшаться дымом, пылью или мглою.
Явления - указаны атмосферные явления, наблюдавшиеся в срок или в последний час перед сроком; фигурными скобками обозначены явления, наблюдавшиеся между сроками (за 1-3 часа до срока); квадратными скобками обозначены град или гололедные отложения с указанием их диаметра в мм.
Облачность - указаны через наклонную черту общая и нижняя облачность в баллах и высота нижней границы облаков в метрах; квадратными скобками обозначены формы облаков: Ci - перистые, Cs - перисто-слоистые, Cc - перисто-кучевые, Ac - высококучевые, As - высокослоистые, Sc - слоисто-кучевые, Ns - слоисто-дождевые, Cu - кучевые, Cb - кучево-дождевые. Подробнее классификацию облаков см. в Атласе облаков (PDF).
T - Температура воздуха - температура, измеренная на высоте 2 м над землей.
Td - Температура точки росы - температура, при понижении до которой содержащийся в воздухе водяной пар достигнет насыщения.
f - Относительная влажность воздуха - влажноcть воздуха, измеренная на высоте 2 м над землей.
Te - Эффективная температура - температура, которую ощущает одетый по сезону человек в тени. Характеристика душности погоды. При расчете учитывается влияние влажности воздуха и скорости ветра на теплоощущения человека.
Tes - Эффективная температура на солнце - температура, которую ощущает человек, с поправкой на солнечный нагрев. Характеристика знойности погоды. Зависит от высоты солнца над горизонтом, облачности и скорости ветра. Ночью, в пасмурную погоду, а также при ветре 12 м/с и более поправка равна нулю.
P - Атмосферное давление - приведенное к уровню моря атмосферное давление.
Po - Атмосферное давление - измеренное на уровне метеостанции атмосферное давление.
Tmin - Минимальная температура - минимум температуры воздуха на высоте 2 м над землей.
Tmax - Максимальная температура - максимум температуры воздуха на высоте 2 м над землей.
R - Количество осадков - Количество выпавших осадков за период времени, мм. При наведении курсора мыши на число - период времени, за который выпало указанное количество осадков.
R24 - Количество осадков - Количество выпавших осадков за 24 часа, мм.
S - Снежный покров - Высота снежного покрова, см. При наведении курсора мыши на число - состояние снежного покрова и степень покрытия местности в баллах.